Regional Weather Roundup
Issued by NWS

Home | Current Version | Previous Version | Graphics & Text | Print | Product List | Glossary On
Versions: 1 2 3 4 5 6 7 8 9 10 11 12 13 14 15 16 17 18 19 20 21 22 23 24 25 26 27 28 29 30 31 32 33 34 35 36 37 38 39 40 41 42 43 44 45 46 47 48 49 50
000
ASUS43 KLOT 251221
RWRIL

ILLINOIS REGIONAL WEATHER ROUNDUP
NATIONAL WEATHER SERVICE CHICAGO/ROMEOVILLE IL
700 AM CDT SAT APR 25 2015

NOTE: "FAIR" INDICATES FEW OR NO CLOUDS BELOW 12,000 FEET WITH NO
SIGNIFICANT WEATHER AND/OR OBSTRUCTIONS TO VISIBILITY.

* THESE STATIONS ARE NOT UNDER NWS QUALITY CONTROL. THEY ALSO MAY NOT
  REPORT WEATHER SUCH AS PRECIPITATION OR FOG.

ILZ001-002-007-009-015-016-024-251300-
NORTHWEST ILLINOIS

CITY           SKY/WX    TMP DP  RH WIND       PRES   REMARKS
MOLINE         LGT RAIN  44  40  85 E21       29.69R FOG
6HR MIN TEMP:  42; 6HR MAX TEMP:  46; 6HR PCP:  0.36;

STERLING*      CLOUDY    43  39  87 E17       29.73F
SAVANNA*       CLOUDY    44  38  81 E13       29.75R
$$

ILZ003-004-008-010-011-017-018-251300-
NORTH CENTRAL ILLINOIS

CITY           SKY/WX    TMP DP  RH WIND       PRES   REMARKS
ROCKFORD       CLOUDY    44  36  73 E14G24    29.79S
6HR MIN TEMP:  42; 6HR MAX TEMP:  44;

FREEPORT*      CLOUDY    42  37  84 E9        29.78F
ROCHELLE*      LGT RAIN  42  39  88 E14       29.76S
DE KALB*       CLOUDY    42  37  83 E15       29.78R
PERU*          LGT RAIN  44  42  94 E17       29.74R
$$

ILZ005-006-012>014-019>023-251300-
NORTHEAST ILLINOIS

CITY           SKY/WX    TMP DP  RH WIND       PRES   REMARKS
CHICAGO-OHARE  CLOUDY    43  37  79 E14       29.79F
6HR MIN TEMP:  41; 6HR MAX TEMP:  44;

CHICAGO-MIDWAY LGT RAIN  46  40  79 E18       29.80S
6HR MIN TEMP:  45; 6HR MAX TEMP:  46; 6HR PCP: TRACE;

AURORA         LGT RAIN  45  38  76 E13       29.79R
6HR MIN TEMP:  42; 6HR MAX TEMP:  45; 6HR PCP:  0.04;

LANSING*       RAIN      43  38  83 E9        29.81R
JOLIET*        CLOUDY    46  42  86 E9        29.78R
WAUKEGAN       CLOUDY    40  37  89 E10       29.82F
6HR MIN TEMP:  39; 6HR MAX TEMP:  40;

DUPAGE AIRPORT LGT RAIN  44  38  79 E14       29.77S
6HR MIN TEMP:  41; 6HR MAX TEMP:  44; 6HR PCP:  0.01;

KANKAKEE*      LGT RAIN  43  42  95 E14       29.76S
WHEELING       CLOUDY    43  37  79 E9        29.82F
6HR MIN TEMP:  41; 6HR MAX TEMP:  43;

MORRIS*        LGT RAIN  44  41  89 E16       29.74S
ROMEOVILLE*    DRIZZLE   44  39  83 E12       29.79R
NORTHERLY ISL    N/A     43  39  86 E16         N/A
$$

LMZ740>746-251300-
SOUTHERN LAKE MICHIGAN

STATION/POSITION SKY/WX   TEMP    WIND        PRES    VSBY  WAVE
                          AIR SEA DIR/SP/G                  HT/PER
                          (F)     (DEG/KT/KT) (MB)    (MI)  (FT/S)
HARRISON CRIB              42      90/ 20/ 24   N/A
BURNHAM HARBOR             43     100/ 15       N/A
CALUMET HARBOR             45     100/ 10/ 17   N/A
BURNS HARBOR               45     100/  9/ 22 1010.2R
MICHIGAN CITY              45      80/ 15/ 20   N/A
MICHIGAN CITY 6N           45 44  110/ 16/ 19   N/A           3/ 4
$$

ILZ025>027-034>036-040-047-049-050-058-095>099-251300-
WEST-CENTRAL ILLINOIS

CITY           SKY/WX    TMP DP  RH WIND       PRES   REMARKS
QUINCY         LGT RAIN  50  48  93 E13       29.52F FOG
GALESBURG*     RAIN      44  43  94 NE16G24   29.65F
MACOMB*        HVY RAIN  47  47  97 E13       29.64S
JACKSONVILLE*  CLOUDY    53  47  81 E14       29.58F
PITTSFIELD*    CLOUDY    52  49  88 NE7       29.57F
$$

ILZ028>032-037-038-041>044-048-051>054-059>061-251300-
CENTRAL ILLINOIS

CITY           SKY/WX    TMP DP  RH WIND       PRES   REMARKS
PONTIAC        CLOUDY    46  45  95 NE15G21   29.72S
BLOOMINGTON    CLOUDY    49  46  89 E16       29.68S
DECATUR        CLOUDY    52  45  77 SE14      29.65F
PEORIA         CLOUDY    51  44  77 E10       29.66S
6HR MIN TEMP:  48; 6HR MAX TEMP:  56; 6HR PCP:  0.01;

LACON*         CLOUDY    44  42  93 E12       29.70R FOG
LINCOLN*       CLOUDY    52  46  79 E10       29.63S
SPRINGFIELD    RAIN      52  45  77 SE16      29.61F
6HR MIN TEMP:  51; 6HR MAX TEMP:  56; 6HR PCP:  0.07;

TAYLORVILLE    LGT RAIN  50  45  81 E12       29.63S
$$

ILZ033-039-045-046-055>057-062-063-251300-
EAST-CENTRAL ILLINOIS

CITY           SKY/WX    TMP DP  RH WIND       PRES   REMARKS
CHAMPAIGN      LGT RAIN  50  45  83 E16       29.67F
DANVILLE*      LGT RAIN  49  45  85 SE10      29.68F
RANTOUL*       CLOUDY    50  47  90 E10       29.68F
MATTOON        LGT RAIN  51  45  79 SE13      29.65F
PARIS*         CLOUDY    50  46  84 E9G16     29.70F
$$

ILZ079-100>102-251300-
SOUTHWEST ILLINOIS

CITY           SKY/WX    TMP DP  RH WIND       PRES   REMARKS
ALTON          CLOUDY    54  52  94 SE9       29.58F FOG
BELLEVILLE     CLOUDY    55  55 100 SE6       29.58S
CAHOKIA*       CLOUDY    56  54  93 SE8       29.58S FOG
SPARTA*        CLOUDY    54  53  99 SE7G16    29.61S FOG
$$

ILZ064>066-069>071-074>076-080>082-084>086-088>090-092>094-251300-
SOUTH-CENTRAL ILLINOIS

CITY           SKY/WX    TMP DP  RH WIND       PRES   REMARKS
CARBONDALE     CLOUDY    56  53  90 SE8       29.62F
6HR MIN TEMP:  55; 6HR MAX TEMP:  57;

CAIRO*         CLOUDY    58  56  94 SE7       29.64S
EFFINGHAM*     CLOUDY    51  47  86 E7        29.67S
MARION         CLOUDY    57  54  88 SE15      29.63F
MT. VERNON       N/A     54  46  76 CALM      29.63F
CENTRALIA*     LGT RAIN  53  49  86 SE8       29.62F
SALEM*         CLOUDY    54  50  85 SE6       29.64S
METROPOLIS*    CLOUDY    59  58  99 CALM      29.64F
$$

ILZ067-068-072-073-078-083-087-091-251300-
SOUTHEAST ILLINOIS

CITY           SKY/WX    TMP DP  RH WIND       PRES   REMARKS
LAWRENCEVILLE  LGT RAIN  52  48  86 E8        29.68S FOG
FLORA*         CLOUDY    51  49  92 SE9       29.66F
FAIRFIELD*     CLOUDY    53  50  90 E5        29.65S
HARRISBURG*    CLOUDY    56  53  88 SE7       29.66S
ROBINSON*      RAIN      51  48  89 E8        29.69F
CARMI*         CLOUDY    54  48  80 SE6       29.66R
$$

ABBREVIATIONS USED IN REMARKS
   TC - TEMPERATURE IN CELSIUS
  WCI - WIND CHILL INDEX
   HX - HEAT INDEX
  VSB - VISIBILITY
$$



USA.gov is the U.S. government's official web portal to all federal, state and local government web resources and services.